Weather History for Westhampton Beach, NY

Change the Weather History Date:

Sunday, December 16, 2012

  Actual Average Record
Temperature  
Mean Temperature 45 °F -  
Max Temperature 46 °F 43 °F 55 °F (2011)
Min Temperature 44 °F 25 °F 10 °F (2004)
Degree Days  
Heating Degree Days 20    
Moisture  
Dew Point 40 °F    
Average Humidity 82    
Maximum Humidity 93    
Minimum Humidity 63    
Precipitation  
Precipitation 0.28 in - - ()
Sea Level Pressure  
Sea Level Pressure 30.09 in    
Wind  
Wind Speed 10 mph (East)    
Max Wind Speed 17 mph    
Max Gust Speed 26 mph    
Visibility 6 miles    
Events Rain    
Averages and records for this station are not official NWS values.
T = Trace of Precipitation, MM = Missing Value Source: NWS Daily Summary

Daily Weather History Graph

Daily Weather History Graph

Search for Another Location

Airport:

Trip Planner

Search our weather history database for the weather conditions in past years. The results will help you decide how hot, cold, wet, or windy it might be!

Date:

Astronomy

Dec. 16, 2012 Rise Set
Actual Time 7:08 AM EST 4:23 PM EST
Civil Twilight 6:37 AM EST 4:55 PM EST
Nautical Twilight 6:03 AM EST 5:29 PM EST
Astronomical Twilight 5:29 AM EST 6:02 PM EST
Moon 9:39 AM EST (12/16) 8:36 PM EST (12/16)
Length of Visible Light 10h 17m
Length of Day
9h 15m
Waxing Crescent, 16% of the Moon is Illuminated
Dec 16
Waxing Crescent
Dec 20
First Quarter
Dec 28
Full
Jan 4
Last Quarter
Jan 11
New

Hourly Weather History & Observations

Time (EST) Temp. Windchill Dew Point Humidity Pressure Visibility Wind Dir Wind Speed Gust Speed Precip Events Conditions
12:53 AM 44.1 °F 40.8 °F 32.0 °F 63% 30.24 in 10.0 mi East 5.8 mph - N/A   Overcast
1:53 AM 44.1 °F 41.5 °F 32.0 °F 63% 30.25 in 10.0 mi ESE 4.6 mph - N/A   Overcast
2:53 AM 45.0 °F 41.2 °F 34.0 °F 65% 30.24 in 10.0 mi ESE 6.9 mph - N/A   Overcast
3:53 AM 45.0 °F 40.1 °F 36.0 °F 71% 30.21 in 10.0 mi East 9.2 mph 17.3 mph N/A   Overcast
4:53 AM 45.0 °F 40.1 °F 36.0 °F 71% 30.19 in 10.0 mi East 9.2 mph 20.7 mph N/A   Overcast
5:53 AM 45.0 °F 38.9 °F 36.0 °F 71% 30.20 in 10.0 mi ESE 12.7 mph 23.0 mph N/A   Overcast
6:53 AM 45.0 °F 40.1 °F 36.0 °F 71% 30.19 in 10.0 mi East 9.2 mph 19.6 mph N/A   Overcast
7:53 AM 45.0 °F 38.5 °F 36.0 °F 71% 30.18 in 10.0 mi ESE 13.8 mph 25.3 mph N/A   Overcast
8:53 AM 46.0 °F 40.2 °F 36.0 °F 68% 30.18 in 10.0 mi East 12.7 mph 25.3 mph N/A   Overcast
9:53 AM 45.0 °F 38.5 °F 37.0 °F 74% 30.16 in 10.0 mi East 13.8 mph 26.5 mph N/A   Overcast
10:53 AM 46.0 °F 40.2 °F 37.0 °F 71% 30.15 in 10.0 mi East 12.7 mph 23.0 mph N/A   Overcast
11:26 AM 44.6 °F 38.1 °F 39.2 °F 81% 30.14 in 7.0 mi East 13.8 mph 20.7 mph 0.00 in   Overcast
11:53 AM 44.1 °F 38.1 °F 39.9 °F 85% 30.11 in 6.0 mi East 11.5 mph 24.2 mph 0.01 in Rain Light Rain
12:53 PM 44.1 °F 37.4 °F 39.9 °F 85% 30.09 in 4.0 mi East 13.8 mph 25.3 mph 0.00 in Rain Light Rain
1:16 PM 44.6 °F 39.2 °F 39.2 °F 81% 30.08 in 3.0 mi East 10.4 mph 21.9 mph 0.00 in Rain Light Rain
1:23 PM 44.6 °F 38.1 °F 39.2 °F 81% 30.08 in 2.0 mi East 13.8 mph 23.0 mph 0.00 in Rain Light Rain
1:41 PM 44.6 °F 38.1 °F 41.0 °F 87% 30.07 in 1.8 mi East 13.8 mph 23.0 mph 0.01 in Rain Light Rain
1:53 PM 44.1 °F 37.7 °F 41.0 °F 89% 30.06 in 2.0 mi East 12.7 mph 23.0 mph 0.01 in Rain Light Rain
2:53 PM 44.1 °F 37.4 °F 42.1 °F 93% 30.06 in 2.5 mi East 13.8 mph 21.9 mph 0.02 in Rain Light Rain
3:30 PM 44.6 °F 37.2 °F 42.8 °F 93% 30.04 in 1.5 mi East 17.3 mph 24.2 mph 0.01 in Rain Light Rain
3:53 PM 45.0 °F 38.9 °F 42.1 °F 90% 30.04 in 2.0 mi East 12.7 mph 23.0 mph 0.02 in Rain Light Rain
4:44 PM 44.6 °F 37.8 °F 42.8 °F 93% 30.01 in 3.0 mi East 15.0 mph 25.3 mph 0.05 in Rain Light Rain
4:53 PM 45.0 °F 38.5 °F 42.1 °F 90% 30.01 in 3.0 mi East 13.8 mph 24.2 mph 0.06 in Rain Light Rain
5:53 PM 46.0 °F 39.6 °F 43.0 °F 89% 29.99 in 3.0 mi East 15.0 mph 25.3 mph 0.02 in Rain Light Rain
6:24 PM 46.4 °F 41.1 °F 42.8 °F 87% 29.99 in 2.5 mi East 11.5 mph 21.9 mph 0.01 in Rain Light Rain
6:53 PM 46.0 °F 39.6 °F 44.1 °F 93% 29.99 in 3.0 mi East 15.0 mph 26.5 mph 0.02 in Rain Light Rain
7:53 PM 46.0 °F 40.6 °F 44.1 °F 93% 29.97 in 3.0 mi ENE 11.5 mph 24.2 mph 0.04 in Rain Rain
8:53 PM 46.0 °F 40.6 °F 43.0 °F 89% 29.96 in 4.0 mi ENE 11.5 mph 19.6 mph 0.03 in Rain Light Rain
9:53 PM 46.0 °F 40.6 °F 43.0 °F 89% 29.94 in 6.0 mi ENE 11.5 mph 21.9 mph 0.00 in Rain Light Rain
10:53 PM 46.0 °F 40.6 °F 43.0 °F 89% 29.94 in 5.0 mi NE 11.5 mph 20.7 mph 0.00 in   Overcast
11:53 PM 46.0 °F 40.2 °F 44.1 °F 93% 29.92 in 5.0 mi ENE 12.7 mph 23.0 mph 0.05 in Rain Rain